• In Hungary
  • List of Countries
  • For 7 days
  • Water Temperature
  • Satellite Maps
  • Weather Map
  • News
  • Weather Widgets
  • user-avatar
    Login

    Hourly Weather Horodets'

    Today, 21 February, Wednesday

    Time Temperature Precipitation Wind Pressure Humidity
    00:00 -6°C° 0 mm 1 mps 739 mmHg 91%
    01:00 -6°C° 0 mm 1 mps 739 mmHg 92%
    02:00 -6°C° 0 mm 1 mps 739 mmHg 92%
    03:00 -6°C° 0 mm 1 mps 739 mmHg 92%
    04:00 -6°C° 0 mm 1 mps 739 mmHg 92%
    05:00 -7°C° 0 mm 1 mps 739 mmHg 91%
    06:00 -6°C° 0 mm 1 mps 739 mmHg 91%
    07:00 -6°C° 0 mm 1 mps 739 mmHg 90%
    08:00 -6°C° 0 mm 1 mps 738 mmHg 89%
    09:00 -6°C° 0 mm 2 mps 739 mmHg 87%
    10:00 -5°C° 0 mm 2 mps 739 mmHg 85%
    11:00 -4°C° 0 mm 2 mps 739 mmHg 82%
    12:00 -4°C° 0.2 mm 2 mps 738 mmHg 83%
    13:00 -4°C° 0.2 mm 2 mps 738 mmHg 83%
    14:00 -3°C° 0.2 mm 2 mps 738 mmHg 83%
    15:00 -4°C° 0.2 mm 2 mps 738 mmHg 86%
    16:00 -4°C° 0.2 mm 2 mps 738 mmHg 88%
    17:00 -2°C° 0.2 mm 1 mps 738 mmHg 90%
    18:00 -3°C° 0.1 mm 1 mps 738 mmHg 92%
    19:00 -3°C° 0.1 mm 1 mps 738 mmHg 93%
    20:00 -3°C° 0.1 mm 1 mps 738 mmHg 95%
    21:00 -4°C° 0.1 mm 1 mps 738 mmHg 95%
    22:00 -4°C° 0.1 mm 1 mps 738 mmHg 95%
    23:00 -4°C° 0.1 mm 1 mps 738 mmHg 95%

    Tomorrow, 22 February, Thursday

    Time Temperature Precipitation Wind Pressure Humidity
    00:00 -4°C° 0 mm 1 mps 738 mmHg 95%
    01:00 -4°C° 0 mm 1 mps 738 mmHg 95%
    02:00 -4°C° 0 mm 1 mps 738 mmHg 95%
    03:00 -6°C° 0 mm 1 mps 738 mmHg 95%
    04:00 -6°C° 0 mm 1 mps 738 mmHg 95%
    05:00 -6°C° 0 mm 1 mps 738 mmHg 95%
    06:00 -6°C° 0 mm 1 mps 738 mmHg 95%
    07:00 -6°C° 0 mm 1 mps 738 mmHg 95%
    08:00 -6°C° 0 mm 1 mps 738 mmHg 95%
    09:00 -6°C° 0 mm 2 mps 738 mmHg 91%
    10:00 -5°C° 0 mm 2 mps 739 mmHg 87%
    11:00 -5°C° 0 mm 2 mps 739 mmHg 83%
    12:00 -4°C° 0 mm 2 mps 739 mmHg 81%
    13:00 -4°C° 0 mm 2 mps 739 mmHg 79%
    14:00 -4°C° 0 mm 2 mps 738 mmHg 77%
    15:00 -4°C° 0 mm 2 mps 738 mmHg 79%
    16:00 -4°C° 0 mm 2 mps 738 mmHg 81%
    17:00 -4°C° 0 mm 2 mps 738 mmHg 83%
    18:00 -5°C° 0 mm 2 mps 738 mmHg 86%
    19:00 -6°C° 0 mm 2 mps 739 mmHg 89%
    20:00 -6°C° 0 mm 2 mps 739 mmHg 92%
    21:00 -6°C° 0 mm 1 mps 739 mmHg 93%
    22:00 -6°C° 0 mm 1 mps 739 mmHg 94%
    23:00 -7°C° 0 mm 1 mps 739 mmHg 95%

    Day after tomorrow, 23 February, Friday

    Time Temperature Precipitation Wind Pressure Humidity
    00:00 -7°C° 0 mm 1 mps 739 mmHg 95%
    01:00 -7°C° 0 mm 1 mps 739 mmHg 95%
    02:00 -7°C° 0 mm 1 mps 739 mmHg 95%
    03:00 -7°C° 0 mm 1 mps 739 mmHg 95%
    04:00 -7°C° 0 mm 1 mps 738 mmHg 94%
    05:00 -7°C° 0 mm 1 mps 738 mmHg 94%
    06:00 -8°C° 0 mm 1 mps 738 mmHg 94%
    07:00 -8°C° 0 mm 1 mps 738 mmHg 93%
    08:00 -8°C° 0 mm 1 mps 739 mmHg 93%
    09:00 -7°C° 0 mm 1 mps 739 mmHg 89%
    10:00 -6°C° 0 mm 1 mps 739 mmHg 84%
    11:00 -4°C° 0 mm 1 mps 739 mmHg 80%
    12:00 -4°C° 0 mm 1 mps 738 mmHg 78%
    13:00 -4°C° 0 mm 1 mps 738 mmHg 77%
    14:00 -3°C° 0 mm 1 mps 738 mmHg 75%
    15:00 -3°C° 0.1 mm 1 mps 738 mmHg 78%
    16:00 -4°C° 0.1 mm 1 mps 738 mmHg 80%
    17:00 -4°C° 0.1 mm 1 mps 737 mmHg 83%
    18:00 -7°C° 0.1 mm 2 mps 738 mmHg 85%
    19:00 -7°C° 0.1 mm 2 mps 738 mmHg 87%
    20:00 -8°C° 0.1 mm 2 mps 738 mmHg 89%
    21:00 -9°C° 0.1 mm 2 mps 738 mmHg 89%
    22:00 -10°C° 0.1 mm 3 mps 738 mmHg 89%
    23:00 -12°C° 0.1 mm 3 mps 738 mmHg 89%

    24 February, Saturday

    Time Temperature Precipitation Wind Pressure Humidity
    00:00 -12°C° 0.1 mm 4 mps 738 mmHg 88%
    01:00 -14°C° 0.1 mm 4 mps 738 mmHg 87%
    02:00 -15°C° 0.1 mm 4 mps 738 mmHg 86%
    03:00 -15°C° 0 mm 4 mps 738 mmHg 86%
    04:00 -16°C° 0 mm 4 mps 737 mmHg 86%
    05:00 -17°C° 0 mm 4 mps 737 mmHg 87%
    06:00 -17°C° 0 mm 4 mps 738 mmHg 87%
    07:00 -17°C° 0 mm 4 mps 738 mmHg 87%
    08:00 -17°C° 0 mm 4 mps 738 mmHg 87%
    09:00 -17°C° 0 mm 4 mps 738 mmHg 83%
    10:00 -16°C° 0 mm 4 mps 738 mmHg 80%
    11:00 -15°C° 0 mm 5 mps 738 mmHg 77%
    12:00 -15°C° 0 mm 5 mps 738 mmHg 76%
    13:00 -14°C° 0 mm 5 mps 738 mmHg 75%
    14:00 -14°C° 0 mm 5 mps 738 mmHg 74%
    15:00 -14°C° 0.1 mm 4 mps 738 mmHg 76%
    16:00 -14°C° 0.1 mm 4 mps 738 mmHg 78%
    17:00 -14°C° 0.1 mm 4 mps 738 mmHg 80%
    18:00 -15°C° 0.1 mm 4 mps 739 mmHg 82%
    19:00 -15°C° 0.1 mm 4 mps 739 mmHg 84%
    20:00 -15°C° 0.1 mm 4 mps 739 mmHg 86%
    21:00 -14°C° 0 mm 3 mps 740 mmHg 86%
    22:00 -15°C° 0 mm 3 mps 740 mmHg 86%
    23:00 -15°C° 0 mm 3 mps 740 mmHg 87%

    25 February, Sunday

    Time Temperature Precipitation Wind Pressure Humidity
    00:00 -16°C° 0 mm 3 mps 740 mmHg 88%
    01:00 -17°C° 0 mm 3 mps 740 mmHg 89%
    02:00 -17°C° 0 mm 3 mps 741 mmHg 90%
    03:00 -18°C° 0 mm 3 mps 741 mmHg 90%
    04:00 -18°C° 0 mm 3 mps 741 mmHg 91%
    05:00 -19°C° 0 mm 3 mps 741 mmHg 91%
    06:00 -19°C° 0 mm 3 mps 741 mmHg 91%
    07:00 -19°C° 0 mm 3 mps 741 mmHg 91%
    08:00 -19°C° 0 mm 3 mps 741 mmHg 90%
    09:00 -18°C° 0 mm 3 mps 742 mmHg 87%
    10:00 -17°C° 0 mm 3 mps 742 mmHg 84%
    11:00 -17°C° 0 mm 3 mps 742 mmHg 80%
    12:00 -16°C° 0 mm 3 mps 742 mmHg 77%
    13:00 -15°C° 0 mm 3 mps 742 mmHg 75%
    14:00 -14°C° 0 mm 3 mps 741 mmHg 72%
    15:00 -14°C° 0 mm 3 mps 741 mmHg 75%
    16:00 -15°C° 0 mm 3 mps 741 mmHg 77%
    17:00 -15°C° 0 mm 3 mps 741 mmHg 79%
    18:00 -15°C° 0 mm 2 mps 741 mmHg 83%
    19:00 -16°C° 0 mm 2 mps 741 mmHg 86%
    20:00 -16°C° 0 mm 2 mps 741 mmHg 90%
    21:00 -17°C° 0 mm 2 mps 742 mmHg 91%
    22:00 -17°C° 0 mm 2 mps 742 mmHg 92%
    23:00 -17°C° 0 mm 2 mps 742 mmHg 92%

    26 February, Monday

    Time Temperature Precipitation Wind Pressure Humidity
    00:00 -18°C° 0 mm 2 mps 742 mmHg 92%
    01:00 -16°C° 0 mm 1 mps 741 mmHg 93%
    02:00 -16°C° 0 mm 1 mps 741 mmHg 93%
    03:00 -17°C° 0 mm 1 mps 741 mmHg 93%
    04:00 -17°C° 0 mm 1 mps 741 mmHg 93%
    05:00 -17°C° 0 mm 1 mps 741 mmHg 93%
    06:00 -17°C° 0 mm 1 mps 741 mmHg 93%
    07:00 -17°C° 0 mm 1 mps 741 mmHg 92%
    08:00 -17°C° 0 mm 1 mps 741 mmHg 91%
    09:00 -16°C° 0 mm 1 mps 741 mmHg 86%
    10:00 -15°C° 0 mm 1 mps 741 mmHg 80%
    11:00 -14°C° 0 mm 1 mps 741 mmHg 75%
    12:00 -13°C° 0 mm 1 mps 741 mmHg 72%
    13:00 -13°C° 0 mm 1 mps 740 mmHg 70%
    14:00 -12°C° 0 mm 1 mps 740 mmHg 68%
    15:00 -12°C° 0 mm 1 mps 740 mmHg 70%
    16:00 -13°C° 0 mm 1 mps 740 mmHg 73%
    17:00 -13°C° 0 mm 1 mps 739 mmHg 76%
    18:00 -14°C° 0 mm 1 mps 739 mmHg 80%
    19:00 -17°C° 0 mm 2 mps 739 mmHg 84%
    20:00 -18°C° 0 mm 2 mps 739 mmHg 88%
    21:00 -18°C° 0 mm 2 mps 739 mmHg 89%
    22:00 -18°C° 0 mm 2 mps 739 mmHg 90%
    23:00 -19°C° 0 mm 2 mps 739 mmHg 91%
    Show more